Simultaneous Nadir Overpasses (SNOs) Predictions

Prediction of SNOs between AQUA and GOES-15 Satellite Orbit:

Table of predicted SNOs for the next 14.0 days since TLE Epoch: 4/15/2014
Index Date Time (AQUA) AQUA Lat,Lon GOES-15 Lat,Lon Distance(km) Time Diff (sec)
1 04/16/2014 22:29:44 0.39,-133.45 -0.01,-135.42 223.89 80
2 04/17/2014 10:50:59 0.72,-138.61 0.02,-135.43 361.73 80
3 04/19/2014 10:38:47 0.03,-135.66 0.01,-135.42 26.44 80
4 04/21/2014 10:26:33 -0.56,-132.69 0.01,-135.40 308.80 80
5 04/21/2014 22:47:56 -0.52,-137.88 -0.02,-135.39 282.78 80
6 04/23/2014 22:35:41 0.05,-134.90 -0.02,-135.37 52.20 80
7 04/25/2014 22:23:28 0.71,-131.95 -0.02,-135.35 386.80 80
8 04/26/2014 10:44:42 0.36,-137.10 0.02,-135.35 198.85 80
9 04/28/2014 10:32:26 -0.22,-134.12 0.01,-135.32 135.52 80
10 04/28/2014 22:53:49 -0.89,-139.31 -0.01,-135.30 456.63 80




NCC Satellite Simultaneous Nadir Overpasses (SNOs) Prediction Service
